Terug naar catalogus

COSMOS 1408 DEB

ActiefPO
NORAD 50032·DEBRIS·🇷🇺 Russia

Gelanceerd Sep 16, 1982 vanaf Plesetsk Cosmodrome

Loading…

Volgende Passages (komende 24 uur)

TLE

VersSource: Space-Track

Epoch: Sep 14, 2026, 02:35 UTC

1 50032U 82092RU  26257.10778682  .00003694  00000-0  68792-4 0  9990
2 50032  82.5626 135.6378 0013291 294.6589  65.3277 15.48362470268616

Volg COSMOS 1408 DEB in realtime met AllMySat

Download on the App Store